| time (UTC) | temp F | wind direction | speed knots | gust knots | rain 1hr in | rain 24hr in | rain mn in | humidity % | barometer mb |
| 20260510135650 | 83 | 315 | 0.0 | 1.7 | 0.00 | 0.00 | 0.00 | 36 | |
| 20260510134645 | 83 | 315 | 0.9 | 1.7 | 0.00 | 0.00 | 0.00 | 38 | |
| 20260510133737 | 81 | 0.0 | 0.9 | 0.00 | 0.00 | 0.00 | 43 | ||
| 20260510132646 | 80 | 0.0 | 0.9 | 0.00 | 0.00 | 0.00 | 44 | ||
| 20260510131649 | 77 | 0.0 | 0.9 | 0.00 | 0.00 | 0.00 | 44 | ||
| 20260510130626 | 82 | 0.0 | 1.7 | 0.00 | 0.00 | 0.00 | 39 | ||
| 20260510125649 | 82 | 293 | 0.0 | 1.7 | 0.00 | 0.00 | 0.00 | 39 | |
| 20260510124625 | 83 | 0.0 | 0.9 | 0.00 | 0.00 | 0.00 | 40 | ||
| 20260510123650 | 82 | 0.0 | 0.9 | 0.00 | 0.01 | 0.00 | 41 | ||
| 20260510122625 | 81 | 0.0 | 0.9 | 0.00 | 0.02 | 0.00 | 44 | ||
| 20260510121650 | 78 | 0.0 | 0.9 | 0.00 | 0.04 | 0.00 | 45 | ||
| 20260510120626 | 78 | 0.0 | 0.9 | 0.00 | 0.05 | 0.00 | 45 | ||
| 20260510115649 | 78 | 0.0 | 1.7 | 0.00 | 0.06 | 0.00 | 45 | ||
| 20260510114626 | 79 | 0.0 | 0.9 | 0.00 | 0.08 | 0.00 | 47 | ||
| 20260510113649 | 78 | 0.0 | 0.9 | 0.00 | 0.09 | 0.00 | 46 | ||
| 20260510112625 | 77 | 0 | 0.9 | 1.7 | 0.00 | 0.11 | 0.00 | 45 | |
| 20260510111649 | 76 | 0.0 | 1.7 | 0.00 | 0.12 | 0.00 | 50 | ||
| 20260510110626 | 75 | 0.0 | 0.9 | 0.00 | 0.13 | 0.00 | 51 | ||
| 20260510105826 | 75 | 0.0 | 0.0 | 0.00 | 0.13 | 0.00 | 52 | ||
| 20260510104850 | 74 | 0.0 | 0.9 | 0.00 | 0.15 | 0.00 | 53 | ||
| 20260510103914 | 72 | 0.0 | 0.9 | 0.00 | 0.18 | 0.00 | 57 | ||
| 20260510102849 | 71 | 0.0 | 0.0 | 0.00 | 0.20 | 0.00 | 54 | ||
| 20260510101827 | 70 | 0.0 | 0.9 | 0.00 | 0.21 | 0.00 | 54 | ||
| 20260510100930 | 69 | 0.0 | 0.9 | 0.00 | 0.22 | 0.00 | 55 | ||
| 20260510095846 | 69 | 0.0 | 0.9 | 0.00 | 0.25 | 0.00 | 55 | ||
| 20260510094849 | 68 | 0.0 | 0.9 | 0.00 | 0.27 | 0.00 | 55 | ||
| 20260510093826 | 68 | 0.0 | 0.9 | 0.00 | 0.30 | 0.00 | 57 | ||
| 20260510092851 | 67 | 0.0 | 0.9 | 0.00 | 0.31 | 0.00 | 59 | ||
| 20260510091825 | 67 | 0.0 | 0.9 | 0.00 | 0.33 | 0.00 | 60 | ||
| 20260510090850 | 67 | 0.0 | 0.9 | 0.00 | 0.37 | 0.00 | 61 | ||
| 20260510085650 | 66 | 0.0 | 0.9 | 0.00 | 0.40 | 0.00 | 63 | ||
| 20260510084626 | 66 | 0.0 | 0.0 | 0.00 | 0.41 | 0.00 | 65 | ||
| 20260510083651 | 65 | 0.0 | 0.9 | 0.00 | 0.45 | 0.00 | 67 | ||
| 20260510082626 | 65 | 0.0 | 0.9 | 0.00 | 0.48 | 0.00 | 70 | ||
| 20260510081650 | 64 | 0.0 | 0.9 | 0.00 | 0.51 | 0.00 | 70 | ||
| 20260510080626 | 64 | 0.0 | 0.9 | 0.00 | 0.52 | 0.00 | 72 | ||
| 20260510075650 | 63 | 0.0 | 0.9 | 0.00 | 0.53 | 0.00 | 76 | ||
| 20260510074626 | 63 | 0.0 | 0.9 | 0.00 | 0.53 | 0.00 | 79 | ||
| 20260510073651 | 62 | 0.0 | 0.0 | 0.00 | 0.53 | 0.00 | 81 | ||
| 20260510072714 | 62 | 0.0 | 0.0 | 0.00 | 0.53 | 0.00 | 83 | ||
| 20260510071758 | 61 | 0.0 | 0.9 | 0.00 | 0.53 | 0.00 | 86 | ||
| 20260510070627 | 61 | 0.0 | 0.0 | 0.00 | 0.53 | 0.00 | 88 | ||
| 20260510065655 | 60 | 0.0 | 0.0 | 0.00 | 0.53 | 0.00 | 90 | ||
| 20260510064716 | 60 | 0.0 | 0.9 | 0.00 | 0.53 | 0.00 | 94 | ||
| 20260510063740 | 59 | 0.0 | 0.9 | 0.00 | 0.53 | 0.00 | 97 | ||
| 20260510062626 | 58 | 0.0 | 0.9 | 0.00 | 0.53 | 0.00 | 97 | ||
| 20260510061651 | 58 | 0.0 | 0.9 | 0.00 | 0.53 | 0.00 | 97 | ||
| 20260510060734 | 0 | 0.0 | 0.0 | 0.00 | 0.53 | 0.00 | |||
| 20260510055800 | 57 | 0.0 | 0.0 | 0.00 | 0.53 | 0.00 | 96 | ||
| 20260510054647 | 57 | 0.0 | 0.0 | 0.00 | 0.53 | 0.00 | 96 | ||
| 20260510053652 | 56 | 0.0 | 0.0 | 0.00 | 0.53 | 0.00 | 96 | ||
| 20260510052626 | 56 | 0.0 | 0.0 | 0.00 | 0.53 | 0.00 | 96 | ||
| 20260510051652 | 56 | 0.0 | 0.0 | 0.00 | 0.53 | 0.00 | 95 | ||
| 20260510050626 | 56 | 0.0 | 0.0 | 0.00 | 0.53 | 0.00 | 95 | ||
| 20260510045426 | 56 | 0.0 | 0.0 | 0.00 | 0.53 | 0.00 | 95 | ||
| 20260510044450 | 56 | 0.0 | 0.0 | 0.00 | 0.53 | 0.00 | 95 | ||
| 20260510043447 | 56 | 0.0 | 0.0 | 0.00 | 0.53 | 0.00 | 95 | ||
| 20260510042451 | 56 | 0.0 | 0.0 | 0.00 | 0.53 | 0.00 | 95 | ||
| 20260510041427 | 56 | 0.0 | 0.0 | 0.00 | 0.53 | 0.00 | 95 | ||
| 20260510040450 | 57 | 0.0 | 0.0 | 0.00 | 0.53 | 0.00 | 95 | ||
| 20260510035311 | 57 | 0.0 | 0.0 | 0.00 | 0.53 | 0.00 | 94 | ||
| 20260510034226 | 57 | 0.0 | 0.0 | 0.00 | 0.53 | 0.00 | 94 | ||
| 20260510033250 | 57 | 0.0 | 0.0 | 0.00 | 0.53 | 0.00 | 94 | ||
| 20260510032226 | 57 | 0.0 | 0.0 | 0.00 | 0.53 | 0.00 | 94 | ||
| 20260510031251 | 58 | 0.0 | 0.0 | 0.00 | 0.53 | 0.00 | 94 | ||
| 20260510030247 | 58 | 0.0 | 0.0 | 0.00 | 0.53 | 0.00 | 94 | ||
| 20260510025826 | 58 | 0.0 | 0.0 | 0.00 | 0.53 | 0.00 | 94 | ||
| 20260510024850 | 58 | 0.0 | 0.0 | 0.00 | 0.53 | 0.00 | 94 | ||
| 20260510023847 | 58 | 0.0 | 0.0 | 0.00 | 0.53 | 0.00 | 94 | ||
| 20260510022850 | 58 | 0.0 | 0.0 | 0.00 | 0.53 | 0.00 | 94 | ||
| 20260510020851 | 59 | 0.0 | 0.0 | 0.00 | 0.53 | 0.00 | 94 | ||
| 20260510015828 | 59 | 0.0 | 0.0 | 0.00 | 0.53 | 0.00 | 93 | ||
| 20260510014850 | 59 | 0.0 | 0.0 | 0.00 | 0.53 | 0.00 | 93 | ||
| 20260510013827 | 59 | 0.0 | 0.0 | 0.00 | 0.53 | 0.00 | 93 | ||
| 20260510012850 | 59 | 0.0 | 0.0 | 0.00 | 0.53 | 0.00 | 93 | ||
| 20260510011827 | 59 | 0.0 | 0.0 | 0.00 | 0.53 | 0.00 | 93 | ||
| 20260510010850 | 60 | 0.0 | 0.0 | 0.00 | 0.53 | 0.00 | 93 | ||
| 20260510005826 | 60 | 0.0 | 0.0 | 0.00 | 0.53 | 0.00 | 93 | ||
| 20260510004851 | 60 | 0.0 | 0.0 | 0.00 | 0.53 | 0.00 | 93 | ||
| 20260510003827 | 60 | 0.0 | 0.0 | 0.00 | 0.53 | 0.00 | 92 | ||
| 20260510002850 | 60 | 0.0 | 0.0 | 0.00 | 0.53 | 0.00 | 92 | ||
| 20260510001827 | 61 | 0.0 | 0.0 | 0.00 | 0.53 | 0.00 | 92 | ||
| 20260510000851 | 61 | 0.0 | 0.9 | 0.00 | 0.53 | 0.00 | 92 | ||
| 20260509235827 | 61 | 0.0 | 0.0 | 0.00 | 0.53 | 0.00 | 92 | ||
| 20260509234851 | 61 | 0.0 | 0.0 | 0.00 | 0.53 | 0.00 | 91 | ||
| 20260509233846 | 61 | 0.0 | 0.0 | 0.00 | 0.53 | 0.00 | 91 | ||
| 20260509232850 | 61 | 0.0 | 0.0 | 0.00 | 0.53 | 0.00 | 90 | ||
| 20260509231827 | 61 | 0.0 | 0.9 | 0.00 | 0.53 | 0.00 | 90 | ||
| 20260509230850 | 61 | 0.0 | 0.0 | 0.00 | 0.53 | 0.00 | 90 | ||
| 20260509225826 | 61 | 0.0 | 0.0 | 0.00 | 0.53 | 0.00 | 89 | ||
| 20260509224911 | 61 | 0.0 | 0.0 | 0.00 | 0.53 | 0.00 | 89 | ||
| 20260509223827 | 61 | 0.0 | 0.0 | 0.00 | 0.53 | 0.00 | 89 | ||
| 20260509222851 | 61 | 0.0 | 0.0 | 0.00 | 0.53 | 0.00 | 88 | ||
| 20260509221828 | 62 | 0.0 | 0.0 | 0.00 | 0.53 | 0.00 | 88 | ||
| 20260509220853 | 62 | 0.0 | 0.0 | 0.00 | 0.53 | 0.00 | 89 | ||
| 20260509215827 | 62 | 0.0 | 0.9 | 0.00 | 0.53 | 0.53 | 88 | ||
| 20260509214851 | 62 | 0.0 | 0.0 | 0.00 | 0.53 | 0.53 | 88 | ||
| 20260509213826 | 61 | 0.0 | 0.0 | 0.00 | 0.53 | 0.53 | 86 | ||
| 20260509212851 | 61 | 0.0 | 0.0 | 0.00 | 0.53 | 0.53 | 86 | ||
| 20260509211827 | 61 | 0.0 | 0.0 | 0.00 | 0.53 | 0.53 | 86 | ||
| 20260509210850 | 0 | 0.0 | 0.0 | 0.00 | 0.53 | 0.53 | |||
| 20260509205828 | 61 | 0.0 | 0.0 | 0.00 | 0.53 | 0.53 | 84 | ||
| 20260509204911 | 61 | 0.0 | 0.0 | 0.00 | 0.53 | 0.53 | 84 | ||
| 20260509203846 | 61 | 0.0 | 0.0 | 0.00 | 0.53 | 0.53 | 83 | ||
| 20260509202911 | 61 | 0.0 | 0.0 | 0.00 | 0.53 | 0.53 | 82 | ||
| 20260509201827 | 62 | 0.0 | 0.0 | 0.00 | 0.53 | 0.53 | 82 | ||
| 20260509200911 | 62 | 0.0 | 0.0 | 0.00 | 0.53 | 0.53 | 82 | ||
| 20260509195827 | 62 | 0.0 | 0.0 | 0.00 | 0.53 | 0.53 | 81 | ||
| 20260509194850 | 63 | 0.0 | 0.0 | 0.00 | 0.53 | 0.53 | 81 | ||
| 20260509193827 | 63 | 0.0 | 0.0 | 0.00 | 0.53 | 0.53 | 80 | ||
| 20260509192851 | 63 | 0.0 | 0.0 | 0.00 | 0.53 | 0.53 | 80 | ||
| 20260509191826 | 63 | 0.0 | 0.0 | 0.00 | 0.53 | 0.53 | 79 | ||
| 20260509190911 | 64 | 0.0 | 0.0 | 0.00 | 0.53 | 0.53 | 74 | ||
| 20260509185827 | 64 | 0.0 | 0.0 | 0.00 | 0.53 | 0.53 | 74 | ||
| 20260509184851 | 64 | 0.0 | 0.0 | 0.00 | 0.53 | 0.53 | 73 | ||
| 20260509183827 | 65 | 0.0 | 0.0 | 0.00 | 0.53 | 0.53 | 73 | ||
| 20260509182851 | 65 | 0.0 | 0.0 | 0.00 | 0.53 | 0.53 | 72 | ||
| 20260509181827 | 65 | 0.0 | 0.0 | 0.00 | 0.53 | 0.53 | 71 | ||
| 20260509180851 | 66 | 0.0 | 0.0 | 0.00 | 0.53 | 0.53 | 70 | ||
| 20260509180043 | 67 | 0.0 | 0.0 | 0.00 | 0.53 | 0.53 | 67 | ||
| 20260509174911 | 69 | 0.0 | 0.0 | 0.00 | 0.53 | 0.53 | 64 | ||
| 20260509173827 | 70 | 0.0 | 0.0 | 0.00 | 0.53 | 0.53 | 64 | ||
| 20260509172911 | 71 | 0.0 | 0.0 | 0.00 | 0.53 | 0.53 | 61 | ||
| 20260509171827 | 73 | 0.0 | 0.0 | 0.00 | 0.53 | 0.53 | 55 | ||
| 20260509170939 | 75 | 0.0 | 0.9 | 0.00 | 0.53 | 0.53 | 54 | ||
| 20260509165827 | 74 | 0.0 | 0.0 | 0.00 | 0.53 | 0.53 | 55 | ||
| 20260509164851 | 75 | 0.0 | 0.0 | 0.00 | 0.53 | 0.53 | 54 | ||
| 20260509163827 | 76 | 0.0 | 0.0 | 0.00 | 0.53 | 0.53 | 55 | ||
| 20260509162939 | 75 | 0.0 | 0.9 | 0.00 | 0.53 | 0.53 | 58 | ||
| 20260509162023 | 73 | 0.0 | 0.0 | 0.00 | 0.53 | 0.53 | 60 | ||
| 20260509161203 | 73 | 0.0 | 0.0 | 0.00 | 0.53 | 0.53 | 58 | ||
| 20260509153827 | 72 | 0.0 | 0.0 | 0.00 | 0.53 | 0.53 | 68 | ||
| 20260509152851 | 71 | 0.0 | 0.0 | 0.00 | 0.53 | 0.53 | 65 | ||
| 20260509151827 | 72 | 0.0 | 0.0 | 0.00 | 0.53 | 0.53 | 71 | ||
| 20260509150852 | 68 | 0.0 | 0.9 | 0.00 | 0.53 | 0.53 | 72 | ||
| 20260509145908 | 67 | 0.0 | 0.0 | 0.00 | 0.53 | 0.53 | 73 | ||
| 20260509144851 | 67 | 0.0 | 0.0 | 0.00 | 0.53 | 0.53 | 73 | ||
| 20260509143827 | 68 | 0.0 | 0.9 | 0.00 | 0.53 | 0.53 | 73 | ||
| 20260509142852 | 68 | 0.0 | 0.9 | 0.00 | 0.53 | 0.53 | 74 | ||
| 20260509141827 | 68 | 0.0 | 0.9 | 0.00 | 0.53 | 0.53 | 76 | ||
| 20260509140911 | 68 | 0.0 | 0.9 | 0.00 | 0.53 | 0.53 | 84 |